Weather Roundup
Issued by NWS Corpus Christi, TX

Home | Current Version | Previous Version | Text Only | Print | Product List | Glossary On
Versions: 1 2 3 4 5 6 7 8 9 10 11 12 13 14 15 16 17 18 19 20 21 22 23 24 25 26 27 28 29 30 31 32 33 34 35 36 37 38 39 40 41 42 43 44 45 46 47 48 49 50
000
ASUS44 KCRP 161110
HRRCRP

SOUTH TEXAS REGIONAL WEATHER ROUNDUP
NATIONAL WEATHER SERVICE CORPUS CHRISTI TX
500 AM CST MON JAN 16 2017


TXZ229>244-161200-
...CORPUS CHRISTI AREA OBSERVATIONS...

CITY           SKY/WX    TMP DP  RH WIND       PRES   REMARKS
CORPUS CHRISTI MOCLDY    67  66  97 E5        29.90F
NAS CORPUS CHR CLOUDY    68  67  96 S5        29.91R
ROCKPORT       MOCLDY    69  67  93 S3        29.91F
KINGSVILLE NAS CLOUDY    67  67 100 NE5       29.89S
ALICE          CLOUDY    67  65  93 E3        29.88F
ORANGE GROVE   CLOUDY    69  68  96 SE7       29.89F
FALFURRIAS     PTCLDY    71  66  84 S12       29.87F
$$

...VICTORIA AREA OBSERVATIONS...

CITY           SKY/WX    TMP DP  RH WIND       PRES   REMARKS
VICTORIA       CLOUDY    70  68  93 SE5       29.92S
BEEVILLE       FAIR      66  66 100 SE6       29.90F
PLEASANTON     CLOUDY    64  61  89 CALM      29.91F
SAN ANTONIO    CLOUDY    62  60  93 CALM      29.92F
$$

...LAREDO AREA OBSERVATIONS...

CITY           SKY/WX    TMP DP  RH WIND       PRES   REMARKS
LAREDO         CLOUDY    69  63  81 N8        29.89S
COTULLA        CLOUDY    65  60  84 NE12      29.91S
DEL RIO        CLEAR     45  43  93 N5        29.95F
MCALLEN        CLEAR     72  66  81 S15       29.85R
HEBBRONVILLE   CLEAR     63  61  95 CALM      29.89R FOG
$$

...OTHER TEXAS OBSERVATIONS...

CITY           SKY/WX    TMP DP  RH WIND       PRES   REMARKS
BROWNSVILLE    PTCLDY    70  66  87 S15       29.86F
HOUSTON        RAIN      68  65  90 SE15      29.97S FOG
COL. STATION   LGT RAIN  67  66  97 S5        29.93F
AUSTIN         CLOUDY    62  61  96 SE5       29.91F
WACO           FOG       55  55 100 CALM      29.92S VSB 1/2
FORT WORTH     FOG       48  48 100 CALM      29.92S VSB 1/2
WICHITA FALLS  CLOUDY    41  40  96 SW13      29.89F
LUBBOCK        CLOUDY    37  35  92 W9        29.89R
EL PASO        PTCLDY    41  34  76 SW10      29.97S
$$

...MARINE OBSERVATIONS...

STATION/POSITION TIME  SKY/WX   TEMP    WIND        PRES    VSBY  WAVE   SWELL
                                AIR SEA DIR/SP/G                  HT/PER HT/PER
                 (UTC)          (F)     (DEG/KT/KT) (MB)    (MI)  (FT/S) (FT/S)
PORT ARANSAS     1000            67 62  140/ 15/ 16 1011.9R
BUOY 90 E PORT A 1050            74 73  150/ 19/ 23 1013.3F         6/ 7   2/13
BUOY 45 SE BAFFI 1050            72     150/ 14/ 16 1011.5F         7/ 8   5/ 8
BUOY 200 E PT IS 1050            75 74  140/ 16/ 19 1014.7F         6/ 7
BUOY 15 E GALVES 0950            67 64  140/ 12/ 14 1014.4          4/ 6   3/ 6
$$




USA.gov is the U.S. government's official web portal to all federal, state and local government web resources and services.